Terug naar catalogus

STARLINK-35108

ActiefCommunicatieVLEO
NORAD 65738·PAYLOAD·🇺🇸 United States

Gelanceerd Sep 25, 2025 vanaf Cape Canaveral Space Force Station

Loading…

Volgende Passages (komende 24 uur)

TLE

VersSource: CelesTrak SupGP

Epoch: Sep 15, 2026, 03:39 UTC

1 65738C 25216E   26258.15256944 -.00028015  00000+0 -82794-3 0  2582
2 65738  53.1569 170.9732 0001270  85.8860  66.0387 15.34395710    13

Volg STARLINK-35108 in realtime met AllMySat

Download on the App Store